Weather in Pryvillia

Ukraine / Luhansk Region     49°00′05″N   38°17′48″E
temp.,
°C
wind,
m/s
gust,
m/s
humid.,
%
clouds,
%
prec.,
mm/h
press.,
hPa
HPBL,
m
8 march, mon
mon823:000wsw8156634 0.0 1013987
02:00−1wsw8156517 0.0 1012788
05:00−1wsw7146992 0.0 1011757
08:00+1wsw8136595 0.0 10101042
11:00+3wsw91455100 0.0 10101611
14:00+3w81262100 0.0 10101428
17:00+2w4107799 0.0 1010695
20:000w388998 0.1 1011412
9 march, tue
tue923:00−1wnw3593100 1.1 1011383
02:00−2wnw3685100 1.2 1012274
05:00−3wnw377967 0.0 1012353
08:00−1w577540 0.0 1014784
11:000nw6766100 0.2 10151073
14:000nw7852100 0.3 10161499
17:00−2nw5856100 0.1 10181349
20:00−4nnw576082 0.1 1021970
10 march, wed
wed1023:00−5nnw56592 0.0 1023909
02:00−6nnw45561 0.0 1024888
05:00−6nnw34570 0.0 1025828
08:00−5nnw33530 0.0 1026794
11:00−3n224164 0.0 1026961
14:00−2nw113571 0.0 10251076
17:00−2nne113783 0.0 1024774
20:00−3ne124043 0.0 1024413
11 march, thu
thu1123:00−3ne22420 0.0 1025393
02:00−3ene12420 0.0 1025459
05:00−3ne22440 0.0 1025365
08:00−3ne23400 0.0 1026763
11:00−1ene333614 0.0 10261342
14:00−1e333943 0.0 10261481
17:00−2ene4446100 0.0 10271097
20:00−4e564976 0.0 1029805
12 march, fri
fri1223:00−4ese464224 0.0 1031737
02:00−5ese453714 0.0 1031663
05:00−6se45360 0.0 1032555
08:00−6se46350 0.0 1033512
11:00−3se45273 0.0 1032805
14:00−2sse462035 0.0 10301167
17:00−2sse562698 0.0 10291026
20:00−3sse6102899 0.0 1028836